Weather in Slavyanskoe

Russia / Republic of Crimea     45°43′41″N   33°19′08″E
temp.,
°C
wind,
m/s
gust,
m/s
humid.,
%
clouds,
%
prec.,
mm/h
press.,
hPa
HPBL,
m
26 february, fri
fri2600:00+5sw5793100 0.1 1031133
03:00+5wsw479298 0.2 1030139
06:00+6wsw4692100 0.0 1029128
09:00+7wsw359179 0.0 1028117
12:00+9wsw69770 0.0 1027336
15:00+10wsw811730 0.0 1025430
18:00+9wsw611790 0.0 1023301
21:00+7sw610880 0.0 1023216
27 february, sat
sat2700:00+7sw711890 0.0 1022243
03:00+7sw712900 0.0 1021268
06:00+6sw611920 0.0 1019211
09:00+7wsw68900 0.0 1019237
12:00+9w45780 0.0 1018251
15:00+9w567916 0.0 1018250
18:00+9nnw697443 0.0 1018347
21:00+6nnw698771 0.6 1019537
28 february, sun
sun2800:00+5nnw6879100 0.3 1019534
03:00+5nw6878100 0.4 1020419
06:00+4nnw6887100 0.1 1020605
09:00+4nnw898398 0.2 1021644
12:00+4nnw677997 0.1 1022750
15:00+5nnw687798 0.3 1022848
18:00+4nw688389 0.2 1023721
21:00+4nnw577794 0.3 1024611
1 march, mon
mon100:00+4nnw5677100 0.3 1025541
03:00+3nnw567999 0.4 1025420
06:00+2nnw4582100 0.0 1025244
09:00+2n3479100 0.1 1027474
12:00+3n337399 0.0 1027621
15:00+4nnw346997 0.1 1028668
18:00+3nnw347267 0.0 1029443
21:00+4ne466874 0.1 1031628
2 march, tue
tue200:00+3nne4561100 0.1 1032690
03:00+3nne4567100 0.1 1033564
06:00+1nne457149 0.0 1033364
09:00+2nnw346626 0.0 1033695
12:00+4nw455974 0.0 1034818
15:00+5w676768 0.0 1032829
18:00+4w7107769 0.0 1030584
21:00+5w7118357 0.0 1030307